• In Kazakhstan
  • List of Countries
  • For 7 days
  • Water Temperature
  • Satellite Maps
  • Weather Map
  • News
  • Weather Widgets
  • user-avatar
    Login

    Hourly Weather Diyarbakır

    Today, 21 November, Tuesday

    Time Temperature Precipitation Wind Pressure Humidity
    00:00 +13°C° 0 mm 2 mps 700 mmHg 59%
    01:00 +13°C° 0 mm 2 mps 700 mmHg 61%
    02:00 +12°C° 0 mm 2 mps 700 mmHg 64%
    03:00 +12°C° 0 mm 2 mps 699 mmHg 66%
    04:00 +12°C° 0 mm 2 mps 699 mmHg 69%
    05:00 +10°C° 0 mm 2 mps 699 mmHg 72%
    06:00 +10°C° 0 mm 2 mps 699 mmHg 75%
    07:00 +12°C° 0 mm 2 mps 699 mmHg 75%
    08:00 +11°C° 0 mm 3 mps 699 mmHg 74%
    09:00 +12°C° 0 mm 4 mps 698 mmHg 74%
    10:00 +13°C° 0.1 mm 5 mps 698 mmHg 70%
    11:00 +14°C° 0.1 mm 6 mps 698 mmHg 66%
    12:00 +15°C° 0.1 mm 7 mps 697 mmHg 62%
    13:00 +15°C° 0.4 mm 8 mps 697 mmHg 61%
    14:00 +15°C° 0.4 mm 9 mps 696 mmHg 61%
    15:00 +15°C° 0.4 mm 9 mps 696 mmHg 61%
    16:00 +13°C° 1.6 mm 8 mps 696 mmHg 65%
    17:00 +12°C° 1.6 mm 7 mps 696 mmHg 70%
    18:00 +11°C° 1.6 mm 6 mps 696 mmHg 74%
    19:00 +12°C° 0.3 mm 5 mps 696 mmHg 73%
    20:00 +11°C° 0.3 mm 4 mps 696 mmHg 71%
    21:00 +11°C° 0.3 mm 4 mps 696 mmHg 70%
    22:00 +10°C° 0.2 mm 3 mps 697 mmHg 71%
    23:00 +10°C° 0.2 mm 3 mps 697 mmHg 72%

    Tomorrow, 22 November, Wednesday

    Time Temperature Precipitation Wind Pressure Humidity
    00:00 +9°C° 0.2 mm 2 mps 697 mmHg 73%
    01:00 +9°C° 0 mm 2 mps 697 mmHg 73%
    02:00 +8°C° 0 mm 2 mps 697 mmHg 73%
    03:00 +8°C° 0 mm 2 mps 698 mmHg 73%
    04:00 +8°C° 0.1 mm 3 mps 698 mmHg 73%
    05:00 +7°C° 0.1 mm 3 mps 698 mmHg 72%
    06:00 +7°C° 0.1 mm 3 mps 698 mmHg 72%
    07:00 +7°C° 0.1 mm 3 mps 698 mmHg 68%
    08:00 +6°C° 0.1 mm 4 mps 699 mmHg 65%
    09:00 +6°C° 0.1 mm 4 mps 699 mmHg 61%
    10:00 +7°C° 0 mm 4 mps 699 mmHg 56%
    11:00 +8°C° 0 mm 5 mps 700 mmHg 51%
    12:00 +9°C° 0 mm 5 mps 700 mmHg 45%
    13:00 +9°C° 0 mm 5 mps 700 mmHg 43%
    14:00 +9°C° 0 mm 5 mps 700 mmHg 42%
    15:00 +9°C° 0 mm 5 mps 700 mmHg 40%
    16:00 +8°C° 0 mm 5 mps 701 mmHg 42%
    17:00 +7°C° 0 mm 4 mps 701 mmHg 45%
    18:00 +6°C° 0 mm 4 mps 701 mmHg 47%
    19:00 +5°C° 0 mm 4 mps 702 mmHg 48%
    20:00 +5°C° 0 mm 4 mps 702 mmHg 49%
    21:00 +4°C° 0 mm 3 mps 703 mmHg 50%
    22:00 +4°C° 0 mm 3 mps 703 mmHg 51%
    23:00 +3°C° 0 mm 3 mps 703 mmHg 52%

    Day after tomorrow, 23 November, Thursday

    Time Temperature Precipitation Wind Pressure Humidity
    00:00 +3°C° 0 mm 3 mps 703 mmHg 53%
    01:00 +2°C° 0 mm 3 mps 703 mmHg 54%
    02:00 +2°C° 0 mm 3 mps 704 mmHg 54%
    03:00 +3°C° 0 mm 2 mps 704 mmHg 55%
    04:00 +3°C° 0 mm 2 mps 704 mmHg 55%
    05:00 +2°C° 0 mm 2 mps 704 mmHg 55%
    06:00 +3°C° 0 mm 1 mps 704 mmHg 55%
    07:00 +4°C° 0 mm 1 mps 704 mmHg 51%
    08:00 +5°C° 0 mm 1 mps 704 mmHg 48%
    09:00 +5°C° 0 mm 1 mps 705 mmHg 45%
    10:00 +7°C° 0 mm 1 mps 705 mmHg 42%
    11:00 +8°C° 0 mm 1 mps 705 mmHg 39%
    12:00 +9°C° 0 mm 1 mps 704 mmHg 37%
    13:00 +8°C° 0 mm 2 mps 704 mmHg 36%
    14:00 +9°C° 0 mm 2 mps 704 mmHg 36%
    15:00 +9°C° 0 mm 2 mps 704 mmHg 36%
    16:00 +9°C° 0 mm 2 mps 703 mmHg 39%
    17:00 +8°C° 0 mm 2 mps 703 mmHg 42%
    18:00 +7°C° 0 mm 2 mps 703 mmHg 44%
    19:00 +7°C° 0 mm 2 mps 703 mmHg 45%
    20:00 +7°C° 0 mm 2 mps 703 mmHg 46%
    21:00 +6°C° 0 mm 2 mps 703 mmHg 47%
    22:00 +6°C° 0.1 mm 2 mps 703 mmHg 48%
    23:00 +6°C° 0.1 mm 2 mps 703 mmHg 49%

    24 November, Friday

    Time Temperature Precipitation Wind Pressure Humidity
    00:00 +6°C° 0.1 mm 2 mps 703 mmHg 50%
    01:00 +6°C° 0.1 mm 2 mps 703 mmHg 53%
    02:00 +7°C° 0.1 mm 1 mps 703 mmHg 55%
    03:00 +7°C° 0.1 mm 1 mps 703 mmHg 58%
    04:00 +6°C° 0 mm 1 mps 704 mmHg 61%
    05:00 +6°C° 0 mm 1 mps 704 mmHg 64%
    06:00 +5°C° 0 mm 1 mps 704 mmHg 67%
    07:00 +4°C° 0 mm 2 mps 705 mmHg 65%
    08:00 +5°C° 0 mm 2 mps 706 mmHg 63%
    09:00 +4°C° 0 mm 3 mps 707 mmHg 61%
    10:00 +5°C° 0 mm 3 mps 707 mmHg 55%
    11:00 +7°C° 0 mm 3 mps 707 mmHg 50%
    12:00 +7°C° 0 mm 3 mps 707 mmHg 44%
    13:00 +8°C° 0 mm 3 mps 706 mmHg 41%
    14:00 +8°C° 0 mm 3 mps 706 mmHg 38%
    15:00 +8°C° 0 mm 3 mps 706 mmHg 35%
    16:00 +7°C° 0 mm 2 mps 706 mmHg 37%
    17:00 +6°C° 0 mm 2 mps 707 mmHg 40%
    18:00 +5°C° 0 mm 2 mps 707 mmHg 43%
    19:00 +6°C° 0 mm 1 mps 707 mmHg 44%
    20:00 +5°C° 0 mm 1 mps 708 mmHg 45%
    21:00 +5°C° 0 mm 1 mps 708 mmHg 46%
    22:00 +5°C° 0 mm 1 mps 708 mmHg 47%
    23:00 +4°C° 0 mm 1 mps 709 mmHg 48%

    25 November, Saturday

    Time Temperature Precipitation Wind Pressure Humidity
    00:00 +4°C° 0 mm 1 mps 709 mmHg 48%
    01:00 +4°C° 0 mm 1 mps 709 mmHg 49%
    02:00 +3°C° 0 mm 1 mps 709 mmHg 50%
    03:00 +3°C° 0 mm 1 mps 709 mmHg 52%
    04:00 +3°C° 0 mm 1 mps 709 mmHg 53%
    05:00 +3°C° 0 mm 1 mps 710 mmHg 55%
    06:00 +2°C° 0 mm 1 mps 710 mmHg 56%
    07:00 +2°C° 0 mm 2 mps 710 mmHg 54%
    08:00 +2°C° 0 mm 2 mps 711 mmHg 51%
    09:00 +3°C° 0 mm 2 mps 711 mmHg 49%
    10:00 +4°C° 0 mm 2 mps 711 mmHg 44%
    11:00 +6°C° 0 mm 2 mps 711 mmHg 39%
    12:00 +7°C° 0 mm 2 mps 711 mmHg 35%
    13:00 +7°C° 0 mm 2 mps 710 mmHg 33%
    14:00 +8°C° 0 mm 2 mps 710 mmHg 31%
    15:00 +8°C° 0 mm 2 mps 710 mmHg 30%
    16:00 +7°C° 0 mm 2 mps 710 mmHg 33%
    17:00 +6°C° 0 mm 2 mps 710 mmHg 37%
    18:00 +5°C° 0 mm 2 mps 710 mmHg 41%
    19:00 +4°C° 0 mm 2 mps 711 mmHg 42%
    20:00 +4°C° 0 mm 2 mps 711 mmHg 43%
    21:00 +3°C° 0 mm 2 mps 711 mmHg 44%
    22:00 +3°C° 0 mm 2 mps 711 mmHg 45%
    23:00 +3°C° 0 mm 2 mps 711 mmHg 46%

    26 November, Sunday

    Time Temperature Precipitation Wind Pressure Humidity
    00:00 +2°C° 0 mm 2 mps 711 mmHg 47%
    01:00 +2°C° 0 mm 2 mps 711 mmHg 47%
    02:00 +2°C° 0 mm 2 mps 711 mmHg 48%
    03:00 +1°C° 0 mm 2 mps 711 mmHg 48%
    04:00 +1°C° 0 mm 2 mps 711 mmHg 48%
    05:00 +2°C° 0 mm 1 mps 711 mmHg 48%
    06:00 +2°C° 0 mm 1 mps 711 mmHg 48%
    07:00 +2°C° 0 mm 1 mps 711 mmHg 44%
    08:00 +2°C° 0 mm 2 mps 711 mmHg 41%
    09:00 +3°C° 0 mm 2 mps 712 mmHg 38%
    10:00 +5°C° 0 mm 2 mps 711 mmHg 34%
    11:00 +6°C° 0 mm 2 mps 711 mmHg 31%
    12:00 +7°C° 0 mm 2 mps 711 mmHg 27%
    13:00 +9°C° 0 mm 1 mps 710 mmHg 26%
    14:00 +9°C° 0 mm 1 mps 710 mmHg 25%
    15:00 +10°C° 0 mm 1 mps 710 mmHg 25%
    16:00 +9°C° 0 mm 1 mps 710 mmHg 28%
    17:00 +7°C° 0 mm 1 mps 710 mmHg 32%
    18:00 +6°C° 0 mm 1 mps 710 mmHg 35%
    19:00 +6°C° 0 mm 1 mps 710 mmHg 35%
    20:00 +5°C° 0 mm 1 mps 710 mmHg 36%
    21:00 +5°C° 0 mm 1 mps 710 mmHg 36%
    22:00 +5°C° 0 mm 1 mps 710 mmHg 37%
    23:00 +4°C° 0 mm 1 mps 710 mmHg 37%
    Show more